Location: Fort Wayne
(41.1310°N, 85.1290°W)
Time: 07:51:59
(UTC-05:00)

Amateur Radio Satellites - All Passes

Search period start: 13 February 2016 07:21
Search period end: 14 February 2016 07:21
Location: Fort Wayne, 41.1310°N, 85.1290°W

Satellite Date Start Highest point End Downlink Frequencies (MHz)
Time Altitude Azimuth
Cubesat XI-IV 13 Feb 07:22:51 07:28:14 73° 286° (WNW) 07:33:35 437.490
GOMX 1 13 Feb 07:23:21 07:27:13 31° 96° (E) 07:30:56 467.674
STRAND 1 13 Feb 07:30:23 07:35:19 50° 260° (W) 07:40:20 437.568
GONETS M04 13 Feb 07:32:06 07:37:19 18° 77° (ENE) 07:42:32
O/OREOS (USA 219) 13 Feb 07:50:29 07:54:57 78° 110° (ESE) 07:59:29 437.305
CUTE 1.7 + AOD 2 13 Feb 08:03:30 08:06:26 18° 93° (E) 08:09:20 437.475
SEEDS 13 Feb 08:04:03 08:06:06 13° 91° (E) 08:08:08 437.485
BRITE-PL 13 Feb 08:14:36 08:18:48 34° 291° (WNW) 08:22:43 437.365/2234.400
Cosmos 2499 13 Feb 08:15:13 08:19:30 15° 75° (ENE) 08:23:48 435.465 / 435.565
LilacSat-2 13 Feb 08:21:19 08:23:03 13° 295° (WNW) 08:24:47 437.200
DOVE 4 13 Feb 08:23:27 08:27:39 74° 100° (E) 08:31:46 437.250
PRISM 13 Feb 08:33:08 08:36:46 29° 263° (W) 08:40:26 437.425
CUBEBUG 2 13 Feb 08:34:46 08:35:45 11° 90° (E) 08:36:45 437.445
AO-85 13 Feb 08:41:45 08:44:34 15° 106° (ESE) 08:47:26 145.980
CANX-2 13 Feb 08:48:13 08:52:30 64° 101° (E) 08:56:46 2200.000
CUTE-I 13 Feb 08:49:57 08:52:37 14° 301° (WNW) 08:55:18 437.470
CINEMA 3 13 Feb 08:50:27 08:54:29 47° 99° (E) 08:58:33 145.822/145.860
UNISAT 6 13 Feb 08:58:32 09:00:01 12° 62° (ENE) 09:01:30 437.425
GOMX 1 13 Feb 09:01:50 09:05:09 22° 294° (WNW) 09:08:21 467.674
HO-68 13 Feb 09:03:22 09:10:36 73° 104° (ESE) 09:17:45 435.675
Cubesat XI-IV 13 Feb 09:06:36 09:07:21 10° 304° (NW) 09:08:06 437.490
ZACube-1 13 Feb 09:11:54 09:14:19 15° 92° (E) 09:16:44 437.345
COMPASS 1 13 Feb 09:16:52 09:21:05 65° 101° (E) 09:25:17 437.405
FUNcube-1 13 Feb 09:18:39 09:21:25 17° 93° (E) 09:24:12 145.935
GONETS M04 13 Feb 09:24:08 09:32:50 89° 270° (W) 09:41:37
PCSat 13 Feb 09:28:29 09:32:15 19° 105° (ESE) 09:36:01 145.827
AIST 1 13 Feb 09:29:34 09:30:23 10° 83° (E) 09:31:12
RS-15 13 Feb 09:32:53 09:39:15 17° 96° (E) 09:45:44 29.354- 29.394
O/OREOS (USA 219) 13 Feb 09:33:03 09:34:57 12° 309° (NW) 09:36:51 437.305
SEEDS 13 Feb 09:37:57 09:42:07 52° 286° (WNW) 09:46:15 437.485
CUTE 1.7 + AOD 2 13 Feb 09:38:26 09:42:26 39° 288° (WNW) 09:46:26 437.475
ANTELSAT 13 Feb 09:40:48 09:44:37 32° 70° (ENE) 09:48:26 437.575/2403.000
AAUSAT CUBESAT 2 13 Feb 09:41:54 09:46:07 79° 284° (WNW) 09:50:19 437.432
Oscar 11 13 Feb 09:44:54 09:49:05 44° 99° (E) 09:53:14 145.826/435.025
TIGRISAT 13 Feb 09:46:16 09:50:09 35° 71° (ENE) 09:54:02 435.000
UWE-3 13 Feb 10:01:12 10:05:27 77° 103° (ESE) 10:09:46 435.000/436.395/437.385
POLYITAN 1 13 Feb 10:01:44 10:03:53 14° 64° (ENE) 10:06:02 437.675
QB50P2 13 Feb 10:02:02 10:04:19 14° 64° (ENE) 10:06:36 145.880/145.840
Cosmos 2499 13 Feb 10:02:20 10:11:04 76° 94° (E) 10:19:56 435.465 / 435.565
CUBEBUG 2 13 Feb 10:08:35 10:12:46 63° 285° (WNW) 10:17:01 437.445
AO-85 13 Feb 10:19:01 10:24:22 82° 302° (WNW) 10:29:55 145.980
DELFI C3 13 Feb 10:25:53 10:29:56 70° 101° (E) 10:33:58 145.870
CANX-2 13 Feb 10:26:05 10:27:49 12° 297° (WNW) 10:29:33 2200.000
CINEMA 3 13 Feb 10:28:58 10:31:16 15° 295° (WNW) 10:33:35 145.822/145.860
POPSAT HIP 1 13 Feb 10:29:20 10:32:51 26° 69° (ENE) 10:36:23 437.405
DUCHIFAT 1 13 Feb 10:31:19 10:34:48 26° 68° (ENE) 10:38:16 145.980
NANOSAT C BR1 13 Feb 10:31:33 10:35:06 27° 69° (ENE) 10:38:39 145.865
UNISAT 6 13 Feb 10:31:56 10:36:12 66° 258° (WSW) 10:40:27 437.425
HUMSAT D 13 Feb 10:32:44 10:36:33 33° 97° (E) 10:40:24 437.325/437.525
QB50P1 13 Feb 10:41:13 10:45:04 35° 71° (ENE) 10:48:55 145.935-145.965
ZACube-1 13 Feb 10:46:45 10:50:50 47° 287° (WNW) 10:54:59 437.345
HO-68 13 Feb 10:52:13 10:57:36 23° 303° (WNW) 11:02:59 435.675
FUNcube-1 13 Feb 10:53:52 10:57:50 41° 288° (WNW) 11:01:54 145.935
COMPASS 1 13 Feb 10:54:37 10:56:06 12° 297° (WNW) 10:57:37 437.405
AIST 1 13 Feb 11:02:59 11:07:21 65° 279° (W) 11:11:45
PCSat 13 Feb 11:09:49 11:15:09 58° 302° (WNW) 11:20:32 145.827
VELOX 1 13 Feb 11:11:54 11:14:44 17° 92° (E) 11:17:32 145.980
BUGSAT 1 13 Feb 11:15:55 11:19:52 42° 72° (ENE) 11:23:47 437.445
ANTELSAT 13 Feb 11:18:08 11:21:24 21° 266° (W) 11:24:40 437.575/2403.000
UKube-1 13 Feb 11:20:33 11:23:33 18° 94° (E) 11:26:32 .
Oscar 11 13 Feb 11:22:01 11:24:52 17° 295° (WNW) 11:27:43 145.826/435.025
CUSAT 1 13 Feb 11:22:18 11:23:32 11° 55° (NE) 11:24:41 437.405
TIGRISAT 13 Feb 11:23:52 11:26:57 19° 266° (W) 11:30:02 435.000
GONETS M04 13 Feb 11:25:13 11:30:57 19° 298° (WNW) 11:36:45
50 SAT 13 Feb 11:27:24 11:30:45 29° 97° (E) 11:34:05 437.505
AISAT 13 Feb 11:28:35 11:32:18 26° 96° (E) 11:35:59 437.250
POLYITAN 1 13 Feb 11:35:07 11:39:15 54° 260° (W) 11:43:24 437.675
QB50P2 13 Feb 11:35:35 11:39:42 51° 260° (W) 11:43:50 145.880/145.840
CUBEBUG 1 13 Feb 11:37:01 11:40:42 26° 95° (E) 11:44:20 437.445
RS-15 13 Feb 11:38:24 11:49:27 78° 118° (ESE) 12:01:10 29.354- 29.394
DX 1 13 Feb 11:38:46 11:42:45 34° 98° (E) 11:46:40 434.975-435.025
UWE-3 13 Feb 11:40:58 11:41:19 10° 298° (WNW) 11:41:40 435.000/436.395/437.385
Oscar 19 13 Feb 11:48:51 11:51:24 14° 60° (ENE) 11:53:58 437.125/150
Cosmos 2499 13 Feb 11:58:07 12:05:03 25° 294° (WNW) 12:12:04 435.465 / 435.565
AO-85 13 Feb 12:02:11 12:05:46 17° 322° (NW) 12:09:23 145.980
DELFI C3 13 Feb 12:03:56 12:04:16 10° 298° (WNW) 12:04:34 145.870
POPSAT HIP 1 13 Feb 12:05:02 12:08:35 26° 264° (W) 12:12:08 437.405
ESTCUBE 1 13 Feb 12:05:23 12:09:57 75° 102° (ESE) 12:14:28 437.505/2401.250
DUCHIFAT 1 13 Feb 12:06:52 12:10:25 26° 264° (W) 12:14:00 145.980
NANOSAT C BR1 13 Feb 12:07:19 12:10:48 25° 264° (W) 12:14:18 145.865
HUMSAT D 13 Feb 12:08:52 12:12:00 21° 293° (WNW) 12:15:08 437.325/437.525
SO-50 13 Feb 12:09:54 12:13:35 21° 42° (NE) 12:17:12 436.795
YUBILEINY 13 Feb 12:17:23 12:18:11 10° 53° (NE) 12:18:58 435.215
QB50P1 13 Feb 12:17:56 12:20:57 19° 266° (W) 12:23:59 145.935-145.965
DANDE 13 Feb 12:25:28 12:31:03 28° 65° (ENE) 12:35:30 436.750
JAS-2 13 Feb 12:25:45 12:32:03 31° 65° (ENE) 12:37:50 435.910
VELOX 1 13 Feb 12:47:13 12:51:25 44° 289° (WNW) 12:55:35 145.980
Gurwin Techsat 1B 13 Feb 12:49:54 12:53:40 20° 63° (ENE) 12:57:25 435.225
TISAT 1 13 Feb 12:52:34 12:55:51 22° 95° (E) 12:59:09 437.305
BUGSAT 1 13 Feb 12:52:52 12:55:26 16° 267° (W) 12:58:00 437.445
UKube-1 13 Feb 12:55:44 12:59:45 39° 289° (WNW) 13:03:45 .
PCSat 13 Feb 12:57:50 12:59:44 12° 324° (NW) 13:01:39 145.827
SPROUT 13 Feb 12:57:56 13:02:13 76° 103° (ESE) 13:06:28 437.525
CUSAT 1 13 Feb 13:01:41 13:07:07 81° 262° (W) 13:11:08 437.405
50 SAT 13 Feb 13:01:49 13:04:35 19° 292° (WNW) 13:07:21 437.505
AISAT 13 Feb 13:04:59 13:08:44 28° 292° (WNW) 13:12:27 437.250
ITAMSAT 1 13 Feb 13:06:02 13:08:50 15° 60° (ENE) 13:11:37 435.822/435.867
CUBEBUG 1 13 Feb 13:13:15 13:16:56 27° 292° (WNW) 13:20:35 437.445
DX 1 13 Feb 13:15:24 13:18:44 22° 294° (WNW) 13:22:01 434.975-435.025
Oscar 19 13 Feb 13:24:52 13:30:03 79° 257° (WSW) 13:35:15 437.125/150
ESTCUBE 1 13 Feb 13:44:30 13:46:07 12° 299° (WNW) 13:47:45 437.505/2401.250
ITUPSAT 1 13 Feb 13:47:40 13:50:46 17° 92° (E) 13:53:52 437.325
SO-50 13 Feb 13:49:45 13:54:28 58° 241° (WSW) 13:59:01 436.795
RS-15 13 Feb 13:52:51 14:03:07 38° 324° (NW) 14:13:56 29.354- 29.394
BEESAT 13 Feb 13:53:11 13:56:39 20° 93° (E) 14:00:06 436.000
AO-7 13 Feb 14:07:56 14:14:53 31° 56° (ENE) 14:21:49 29.400- 29.500
DANDE 13 Feb 14:08:15 14:14:15 40° 272° (W) 14:18:50 436.750
YUBILEINY 13 Feb 14:08:40 14:17:21 55° 77° (ENE) 14:25:55 435.215
JAS-2 13 Feb 14:09:24 14:16:47 54° 260° (W) 14:23:31 435.910
Cosmos 2491 13 Feb 14:16:39 14:23:54 31° 83° (E) 14:31:10 435.465 / 435.565
ISS 13 Feb 14:23:57 14:26:50 30° 136° (SE) 14:29:43 145.825
TISAT 1 13 Feb 14:27:55 14:31:32 29° 291° (WNW) 14:35:09 437.305
Gurwin Techsat 1B 13 Feb 14:27:59 14:33:10 55° 260° (W) 14:38:25 435.225
SPROUT 13 Feb 14:36:52 14:37:34 10° 299° (WNW) 14:38:15 437.525
ITAMSAT 1 13 Feb 14:42:28 14:47:39 76° 257° (WSW) 14:52:53 435.822/435.867
SWISSCUBE 13 Feb 14:45:05 14:49:54 73° 103° (ESE) 14:54:41 437.505
HORYU 2 13 Feb 14:55:46 14:57:20 12° 61° (ENE) 14:58:54 437.375
Cosmos 2504 13 Feb 15:06:36 15:13:44 28° 67° (ENE) 15:20:27 435.465 / 435.565
M-CUBED/EXP-1 PRIME 13 Feb 15:20:30 15:23:39 31° 67° (ENE) 15:26:39 437.505
ITUPSAT 1 13 Feb 15:24:13 15:28:54 51° 288° (WNW) 15:33:33 437.325
AUBIESAT-1 13 Feb 15:26:39 15:29:45 30° 66° (ENE) 15:32:45 437.475
BEESAT 13 Feb 15:30:05 15:34:38 44° 289° (WNW) 15:39:09 436.000
STARS 13 Feb 15:37:04 15:39:52 17° 93° (E) 15:42:40 437.465
BEESAT 3 13 Feb 15:46:21 15:49:03 18° 111° (ESE) 15:51:45 437.485
AO-7 13 Feb 15:58:46 16:07:04 66° 255° (WSW) 16:15:25 29.400- 29.500
ISS 13 Feb 16:00:14 16:03:14 34° 333° (NNW) 16:06:15 145.825
KKS-1 13 Feb 16:03:48 16:08:12 62° 101° (ESE) 16:12:33 437.445
YUBILEINY 13 Feb 16:06:10 16:13:40 33° 276° (W) 16:21:07 435.215
Cosmos 2491 13 Feb 16:11:42 16:20:12 57° 283° (WNW) 16:28:46 435.465 / 435.565
RS-15 13 Feb 16:11:53 16:20:26 22° 359° (N) 16:29:15 29.354- 29.394
BEESAT 2 13 Feb 16:17:20 16:20:37 25° 113° (ESE) 16:23:55 435.950
O/OREOS (USA 219) 13 Feb 16:22:20 16:25:18 17° 54° (NE) 16:28:16 437.305
SWISSCUBE 13 Feb 16:24:49 16:27:05 13° 299° (WNW) 16:29:20 437.505
MOZHAYETS 4 13 Feb 16:26:53 16:31:21 44° 99° (E) 16:35:47
HORYU 2 13 Feb 16:28:55 16:33:18 72° 257° (WSW) 16:37:43 437.375
CUTE-I 13 Feb 16:52:00 16:55:33 18° 61° (ENE) 16:59:07 437.470
M-CUBED/EXP-1 PRIME 13 Feb 16:56:21 16:58:22 14° 260° (W) 17:00:20 437.505
Cosmos 2504 13 Feb 16:59:22 17:07:43 62° 269° (W) 17:15:29 435.465 / 435.565
AUBIESAT-1 13 Feb 17:02:18 17:04:23 15° 260° (W) 17:06:26 437.475
Cubesat XI-IV 13 Feb 17:06:16 17:10:28 24° 64° (ENE) 17:14:42 437.490
AO-85 13 Feb 17:12:09 17:15:24 16° 36° (NE) 17:18:32 145.980
STARS 13 Feb 17:12:18 17:16:27 43° 289° (WNW) 17:20:34 437.465
CUBESAT XI-V 13 Feb 17:20:00 17:23:01 17° 91° (E) 17:25:59 437.345
BEESAT 3 13 Feb 17:22:44 17:26:30 40° 308° (NW) 17:30:17 437.485
LilacSat-2 13 Feb 17:27:59 17:30:59 23° 69° (ENE) 17:34:00 437.200
ISS 13 Feb 17:38:37 17:40:24 14° 352° (N) 17:42:12 145.825
KKS-1 13 Feb 17:42:06 17:44:15 13° 298° (WNW) 17:46:23 437.445
BRITE-PL 13 Feb 17:45:57 17:50:51 31° 68° (ENE) 17:55:35 437.365/2234.400
HO-68 13 Feb 17:51:08 17:52:18 10° 47° (NE) 17:53:28 435.675
BEESAT 2 13 Feb 17:54:49 17:58:24 30° 310° (NW) 18:02:00 435.950
AO-7 13 Feb 17:59:33 18:01:20 11° 274° (W) 18:03:07 29.400- 29.500
O/OREOS (USA 219) 13 Feb 18:00:34 18:05:04 55° 252° (WSW) 18:09:33 437.305
MOZHAYETS 4 13 Feb 18:04:54 18:08:11 19° 295° (WNW) 18:11:28
PCSat 13 Feb 18:15:16 18:19:07 19° 44° (NE) 18:22:57 145.827
Cosmos 2491 13 Feb 18:18:03 18:19:19 10° 306° (NW) 18:20:35 435.465 / 435.565
RS-15 13 Feb 18:27:21 18:38:04 35° 33° (NNE) 18:48:57 29.354- 29.394
CUTE-I 13 Feb 18:29:50 18:35:05 62° 259° (WSW) 18:40:24 437.470
GOMX 1 13 Feb 18:30:17 18:35:13 40° 71° (ENE) 18:39:56 467.674
AIST 2 13 Feb 18:44:19 18:48:30 86° 304° (WNW) 18:52:41 435.215
Cubesat XI-IV 13 Feb 18:45:11 18:50:15 45° 261° (W) 18:55:23 437.490
AO-85 13 Feb 18:51:37 18:56:49 86° 61° (ENE) 19:01:30 145.980
CUBESAT XI-V 13 Feb 18:56:08 19:00:40 49° 288° (WNW) 19:05:10 437.345
CUTE 1.7 + AOD 2 13 Feb 18:57:20 18:59:20 13° 63° (ENE) 19:01:20 437.475
LilacSat-2 13 Feb 19:02:06 19:05:13 24° 265° (W) 19:08:21 437.200
ISS 13 Feb 19:15:46 19:17:51 16° 13° (NNE) 19:19:57 145.825
BRITE-PL 13 Feb 19:23:57 19:29:10 37° 263° (W) 19:34:14 437.365/2234.400
DOVE 4 13 Feb 19:27:59 19:33:00 76° 75° (ENE) 19:37:44 437.250
HO-68 13 Feb 19:31:30 19:38:25 54° 67° (ENE) 19:45:23 435.675
GONETS M04 13 Feb 19:34:36 19:43:00 46° 74° (ENE) 19:51:23
STRAND 1 13 Feb 19:40:44 19:45:49 56° 101° (E) 19:50:52 437.568
CANX-2 13 Feb 19:40:50 19:44:50 43° 72° (ENE) 19:48:52 2200.000
CINEMA 3 13 Feb 19:51:50 19:56:08 44° 73° (ENE) 20:00:17 145.822/145.860
Cosmos 2499 13 Feb 19:55:23 20:02:08 27° 66° (ENE) 20:08:27 435.465 / 435.565
PCSat 13 Feb 19:57:41 20:03:07 75° 244° (WSW) 20:08:31 145.827
COMPASS 1 13 Feb 20:07:33 20:11:27 42° 72° (ENE) 20:15:25 437.405
GOMX 1 13 Feb 20:08:58 20:13:20 25° 265° (W) 20:17:34 467.674
ZACube-1 13 Feb 20:09:05 20:10:38 12° 63° (ENE) 20:12:10 437.345
PRISM 13 Feb 20:14:29 20:18:21 36° 98° (E) 20:22:10 437.425
FUNcube-1 13 Feb 20:15:23 20:17:23 13° 64° (ENE) 20:19:21 145.935
AIST 2 13 Feb 20:25:55 20:27:38 12° 321° (NW) 20:29:22 435.215
SEEDS 13 Feb 20:29:12 20:33:23 79° 258° (WSW) 20:37:36 437.485
CUTE 1.7 + AOD 2 13 Feb 20:30:33 20:34:41 56° 260° (W) 20:38:52 437.475
AAUSAT CUBESAT 2 13 Feb 20:31:50 20:35:55 66° 75° (ENE) 20:40:04 437.432
AO-85 13 Feb 20:35:05 20:36:24 11° 256° (WSW) 20:37:41 145.980
Oscar 11 13 Feb 20:39:37 20:43:28 33° 70° (ENE) 20:47:21 145.826/435.025
RS-15 13 Feb 20:40:01 20:52:17 89° 237° (WSW) 21:04:39 29.354- 29.394
ISS 13 Feb 20:51:40 20:54:52 52° 32° (NNE) 20:58:02 145.825
UWE-3 13 Feb 20:58:06 21:02:15 59° 74° (ENE) 21:06:21 435.000/436.395/437.385
CUBEBUG 2 13 Feb 21:06:27 21:10:43 78° 257° (WSW) 21:14:56 437.445
DOVE 4 13 Feb 21:09:24 21:11:06 12° 270° (W) 21:12:46 437.250
AIST 1 13 Feb 21:10:28 21:14:15 29° 75° (ENE) 21:18:01
DELFI C3 13 Feb 21:12:03 21:15:45 39° 72° (ENE) 21:19:30 145.870
CANX-2 13 Feb 21:18:24 21:20:54 15° 268° (W) 21:23:27 2200.000
HO-68 13 Feb 21:20:19 21:26:23 29° 265° (W) 21:32:31 435.675
STRAND 1 13 Feb 21:20:59 21:24:33 19° 297° (WNW) 21:28:05 437.568
HUMSAT D 13 Feb 21:24:33 21:27:47 23° 68° (ENE) 21:31:01 437.325/437.525
CINEMA 3 13 Feb 21:30:34 21:33:28 17° 267° (W) 21:36:18 145.822/145.860
GONETS M04 13 Feb 21:31:43 21:39:39 39° 274° (W) 21:47:36
ZACube-1 13 Feb 21:42:18 21:46:26 61° 260° (W) 21:50:33 437.345
COMPASS 1 13 Feb 21:44:45 21:47:14 16° 268° (W) 21:49:46 437.405
Cosmos 2499 13 Feb 21:47:47 21:55:56 63° 268° (W) 22:03:25 435.465 / 435.565
FUNcube-1 13 Feb 21:49:07 21:53:12 53° 260° (W) 21:57:15 145.935
PRISM 13 Feb 21:50:28 21:53:26 19° 294° (WNW) 21:56:22 437.425
50 SAT 13 Feb 22:08:41 22:10:48 15° 66° (ENE) 22:12:56 437.505
VELOX 1 13 Feb 22:09:39 22:12:23 16° 64° (ENE) 22:15:07 145.980
UKube-1 13 Feb 22:15:34 22:18:20 17° 64° (ENE) 22:21:05 .
Oscar 11 13 Feb 22:16:25 22:19:40 21° 266° (W) 22:22:57 145.826/435.025
UNISAT 6 13 Feb 22:23:53 22:27:30 24° 95° (E) 22:31:08 437.425
AISAT 13 Feb 22:26:05 22:29:42 25° 67° (ENE) 22:33:19 437.250
ISS 13 Feb 22:28:49 22:31:02 17° 228° (SW) 22:33:14 145.825
CUBEBUG 1 13 Feb 22:33:06 22:36:36 23° 67° (ENE) 22:40:05 437.445
DX 1 13 Feb 22:34:13 22:38:03 30° 69° (ENE) 22:41:53 434.975-435.025
UWE-3 13 Feb 22:37:55 22:39:05 11° 270° (W) 22:40:16 435.000/436.395/437.385
AIST 1 13 Feb 22:48:20 22:51:41 22° 272° (W) 22:55:01
DELFI C3 13 Feb 22:48:28 22:50:50 15° 268° (W) 22:53:14 145.870
RS-15 13 Feb 22:54:20 23:03:09 24° 260° (W) 23:12:02 29.354- 29.394
HUMSAT D 13 Feb 22:59:49 23:03:19 27° 264° (W) 23:06:49 437.325/437.525
ESTCUBE 1 13 Feb 23:04:32 23:09:01 67° 75° (ENE) 23:13:34 437.505/2401.250
ANTELSAT 13 Feb 23:08:15 23:12:38 75° 101° (E) 23:17:06 437.575/2403.000
PHONESAT 2.4 13 Feb 23:12:43 23:15:15 21° 153° (SSE) 23:17:47 2401.200-2431.200
TIGRISAT 13 Feb 23:13:35 23:17:58 82° 104° (ESE) 23:22:25 435.000
POLYITAN 1 13 Feb 23:20:39 23:24:02 23° 95° (E) 23:27:25 437.675
QB50P2 13 Feb 23:21:01 23:24:29 24° 95° (E) 23:27:55 145.880/145.840
50 SAT 13 Feb 23:41:04 23:44:30 36° 262° (W) 23:47:59 437.505
VELOX 1 13 Feb 23:44:06 23:48:26 51° 260° (W) 23:52:48 145.980
TISAT 1 13 Feb 23:44:49 23:47:40 18° 66° (ENE) 23:50:31 437.305
POPSAT HIP 1 13 Feb 23:49:09 23:53:13 47° 99° (E) 23:57:17 437.405
UKube-1 13 Feb 23:49:51 23:54:01 46° 260° (W) 23:58:13 .
DUCHIFAT 1 13 Feb 23:50:25 23:54:27 45° 99° (E) 23:58:28 145.980
NANOSAT C BR1 13 Feb 23:51:00 23:55:05 49° 100° (E) 23:59:08 145.865
SPROUT 13 Feb 23:51:20 23:55:31 56° 74° (ENE) 23:59:43 437.525
UNISAT 6 14 Feb 00:00:23 00:04:12 30° 290° (WNW) 00:08:05 437.425
QB50P1 14 Feb 00:01:17 00:05:29 68° 102° (ESE) 00:09:39 145.935-145.965
AISAT 14 Feb 00:02:05 00:06:03 31° 263° (W) 00:10:02 437.250
BEESAT 3 14 Feb 00:03:49 00:05:54 14° 41° (NE) 00:07:56 437.485
CUBEBUG 1 14 Feb 00:08:43 00:12:42 33° 263° (W) 00:16:43 437.445
DX 1 14 Feb 00:10:40 00:14:14 24° 265° (W) 00:17:49 434.975-435.025
CUSAT 1 14 Feb 00:21:24 00:27:08 22° 83° (E) 00:32:45 437.405
Cosmos 2491 14 Feb 00:27:26 00:31:59 15° 58° (ENE) 00:36:31 435.465 / 435.565
BUGSAT 1 14 Feb 00:32:55 00:36:57 74° 102° (ESE) 00:40:57 437.445
BEESAT 2 14 Feb 00:35:41 00:38:27 18° 44° (NE) 00:41:12 435.950
ESTCUBE 1 14 Feb 00:44:47 00:46:17 11° 270° (W) 00:47:48 437.505/2401.250
ANTELSAT 14 Feb 00:47:32 00:48:46 11° 298° (WNW) 00:50:01 437.575/2403.000
PHONESAT 2.4 14 Feb 00:48:55 00:52:11 63° 168° (SSE) 00:55:26 2401.200-2431.200
TIGRISAT 14 Feb 00:53:41 00:54:02 10° 299° (WNW) 00:54:23 435.000
ITUPSAT 1 14 Feb 00:54:27 00:57:55 21° 64° (ENE) 01:01:26 437.325
POLYITAN 1 14 Feb 00:56:13 00:59:51 29° 291° (WNW) 01:03:28 437.675
QB50P2 14 Feb 00:56:40 01:00:16 28° 291° (WNW) 01:03:51 145.880/145.840
BEESAT 14 Feb 00:59:36 01:03:20 23° 66° (ENE) 01:07:04 436.000
TISAT 1 14 Feb 01:19:05 01:23:03 39° 261° (W) 01:27:01 437.305
JAS-2 14 Feb 01:21:04 01:24:42 18° 90° (E) 01:28:12 435.910
YUBILEINY 14 Feb 01:21:32 01:22:45 10° 72° (ENE) 01:23:59 435.215
POPSAT HIP 1 14 Feb 01:26:12 01:28:37 15° 296° (WNW) 01:31:03 437.405
DUCHIFAT 1 14 Feb 01:27:18 01:29:48 16° 295° (WNW) 01:32:16 145.980
NANOSAT C BR1 14 Feb 01:28:04 01:30:25 15° 296° (WNW) 01:32:46 145.865
SPROUT 14 Feb 01:30:00 01:31:51 12° 269° (W) 01:33:41 437.525
DANDE 14 Feb 01:30:17 01:37:41 42° 89° (E) 01:45:26 436.750
Oscar 19 14 Feb 01:36:45 01:41:28 36° 97° (E) 01:46:09 437.125/150
QB50P1 14 Feb 01:39:26 01:40:42 11° 298° (WNW) 01:41:58 145.935-145.965
BEESAT 3 14 Feb 01:40:09 01:44:07 72° 240° (WSW) 01:48:01 437.485
SWISSCUBE 14 Feb 01:51:18 01:56:03 83° 76° (ENE) 02:00:52 437.505
CUSAT 1 14 Feb 02:00:31 02:08:39 82° 279° (W) 02:16:30 437.405
BEESAT 2 14 Feb 02:12:45 02:16:37 49° 242° (WSW) 02:20:26 435.950
Cosmos 2491 14 Feb 02:21:44 02:30:32 74° 81° (E) 02:39:18 435.465 / 435.565
PHONESAT 2.4 14 Feb 02:26:05 02:29:22 78° 186° (S) 02:32:39 2401.200-2431.200
ITUPSAT 1 14 Feb 02:30:54 02:35:27 44° 261° (W) 02:40:03 437.325
STARS 14 Feb 02:34:12 02:36:51 16° 64° (ENE) 02:39:30 437.465
BEESAT 14 Feb 02:36:28 02:40:53 38° 262° (W) 02:45:21 436.000
Gurwin Techsat 1B 14 Feb 02:44:05 02:49:21 59° 101° (E) 02:54:36 435.225
ITAMSAT 1 14 Feb 02:55:32 03:00:26 39° 98° (E) 03:05:17 435.822/435.867
KKS-1 14 Feb 03:01:33 03:05:54 55° 73° (ENE) 03:10:16 437.445
JAS-2 14 Feb 03:04:55 03:10:15 52° 290° (WNW) 03:15:17 435.910
AIST 2 14 Feb 03:05:53 03:09:59 58° 56° (NE) 03:14:01 435.215
YUBILEINY 14 Feb 03:09:00 03:17:36 63° 92° (E) 03:26:17 435.215
DANDE 14 Feb 03:12:46 03:20:32 48° 287° (WNW) 03:28:37 436.750
Oscar 19 14 Feb 03:16:21 03:20:38 27° 294° (WNW) 03:24:54 437.125/150
MOZHAYETS 4 14 Feb 03:28:37 03:32:54 41° 71° (ENE) 03:37:13
Cosmos 2504 14 Feb 03:45:05 03:51:35 24° 80° (E) 03:58:10 435.465 / 435.565
CUSAT 1 14 Feb 03:46:35 03:51:55 19° 297° (WNW) 03:57:04 437.405
AO-7 14 Feb 04:00:34 04:08:26 44° 100° (E) 04:16:12 29.400- 29.500
SO-50 14 Feb 04:03:17 04:07:58 48° 117° (ESE) 04:12:44 436.795
PHONESAT 2.4 14 Feb 04:03:27 04:06:27 34° 201° (SSW) 04:09:26 2401.200-2431.200
STARS 14 Feb 04:08:33 04:12:49 50° 260° (W) 04:17:07 437.465
Cosmos 2491 14 Feb 04:20:02 04:26:25 23° 280° (W) 04:32:49 435.465 / 435.565
HORYU 2 14 Feb 04:20:35 04:24:00 21° 94° (E) 04:27:24 437.375
CUBESAT XI-V 14 Feb 04:23:32 04:26:35 17° 64° (ENE) 04:29:40 437.345
Gurwin Techsat 1B 14 Feb 04:25:12 04:28:49 19° 298° (WNW) 04:32:26 435.225
M-CUBED/EXP-1 PRIME 14 Feb 04:33:58 04:36:51 23° 102° (ESE) 04:39:53 437.505
ITAMSAT 1 14 Feb 04:35:22 04:39:42 27° 295° (WNW) 04:44:01 435.822/435.867
AUBIESAT-1 14 Feb 04:39:33 04:42:26 23° 102° (ESE) 04:45:27 437.475
KKS-1 14 Feb 04:40:35 04:42:48 14° 269° (W) 04:45:03 437.445
AIST 2 14 Feb 04:46:06 04:47:58 13° 251° (WSW) 04:49:49 435.215
DANDE 14 Feb 05:04:54 05:05:38 10° 308° (NW) 05:06:21 436.750
MOZHAYETS 4 14 Feb 05:06:59 05:10:14 19° 267° (W) 05:13:31
YUBILEINY 14 Feb 05:07:39 05:15:00 29° 292° (WNW) 05:22:25 435.215
STRAND 1 14 Feb 05:22:25 05:23:14 10° 57° (ENE) 05:24:04 437.568
Cosmos 2504 14 Feb 05:35:20 05:44:00 75° 279° (W) 05:52:57 435.465 / 435.565
SO-50 14 Feb 05:44:36 05:48:42 26° 315° (NW) 05:52:50 436.795
AO-7 14 Feb 05:53:27 06:01:08 44° 299° (WNW) 06:08:47 29.400- 29.500
HORYU 2 14 Feb 05:56:35 06:00:39 35° 290° (WNW) 06:04:42 437.375
CUBESAT XI-V 14 Feb 05:58:59 06:03:34 51° 261° (W) 06:08:10 437.345
M-CUBED/EXP-1 PRIME 14 Feb 06:08:43 06:11:25 21° 295° (WNW) 06:14:14 437.505
AUBIESAT-1 14 Feb 06:14:07 06:16:57 23° 295° (WNW) 06:19:53 437.475
LilacSat-2 14 Feb 06:35:01 06:38:29 33° 97° (E) 06:41:55 437.200
O/OREOS (USA 219) 14 Feb 06:35:14 06:38:03 17° 100° (E) 06:40:53 437.305
CUTE-I 14 Feb 06:46:52 06:52:09 54° 100° (E) 06:57:24 437.470
STRAND 1 14 Feb 06:56:25 07:01:31 79° 75° (ENE) 07:06:41 437.568
Cubesat XI-IV 14 Feb 07:02:05 07:07:29 74° 103° (ESE) 07:12:52 437.490
PRISM 14 Feb 07:04:08 07:07:38 27° 68° (ENE) 07:11:10 437.425
